When you browse on this site, cookies collect data to enhance your experience and personalize the content and advertising you see.
Visit our Privacy Policy to learn more. By continuing to use the site, you agree to this use of cookies and data.
  • Em Portugal
  • Lista de países
  • Para 7 dias
  • Temperatura da água
  • Mapa do tempo
  • Widgets de tempo
  • user-avatar
    Iniciar Sessão

    Previsão horária em Burgas

    Hoje, 18 Novembro, Segunda-feira

    Tempo Temperatura Precipitação Vento Pressão Humidade
    00:00 +16°C° 0 mm 2 m/s 763 mmHg 87%
    01:00 +16°C° 0 mm 2 m/s 763 mmHg 88%
    02:00 +15°C° 0 mm 2 m/s 763 mmHg 90%
    03:00 +15°C° 0 mm 2 m/s 762 mmHg 91%
    04:00 +14°C° 0 mm 2 m/s 762 mmHg 92%
    05:00 +14°C° 0 mm 2 m/s 762 mmHg 93%
    06:00 +14°C° 0 mm 2 m/s 762 mmHg 93%
    07:00 +14°C° 0 mm 2 m/s 762 mmHg 92%
    08:00 +14°C° 0 mm 2 m/s 763 mmHg 92%
    09:00 +16°C° 0 mm 2 m/s 763 mmHg 85%
    10:00 +17°C° 0 mm 2 m/s 763 mmHg 78%
    11:00 +19°C° 0 mm 3 m/s 763 mmHg 71%
    12:00 +20°C° 0 mm 3 m/s 763 mmHg 68%
    13:00 +20°C° 0 mm 3 m/s 762 mmHg 65%
    14:00 +21°C° 0 mm 3 m/s 763 mmHg 66%
    15:00 +20°C° 0.1 mm 2 m/s 763 mmHg 72%
    16:00 +19°C° 0.1 mm 2 m/s 763 mmHg 77%
    17:00 +17°C° 0.1 mm 2 m/s 763 mmHg 83%
    18:00 +17°C° 0.1 mm 2 m/s 763 mmHg 82%
    19:00 +18°C° 0.1 mm 1 m/s 764 mmHg 82%
    20:00 +18°C° 0.1 mm 1 m/s 764 mmHg 81%
    21:00 +18°C° 0.1 mm 1 m/s 764 mmHg 81%
    22:00 +16°C° 0.1 mm 1 m/s 764 mmHg 80%
    23:00 +16°C° 0.1 mm 1 m/s 764 mmHg 80%

    Amanhã, 19 Novembro, Terça-feira

    Tempo Temperatura Precipitação Vento Pressão Humidade
    00:00 +16°C° 0.1 mm 1 m/s 765 mmHg 81%
    01:00 +16°C° 0.1 mm 1 m/s 765 mmHg 81%
    02:00 +15°C° 0.1 mm 1 m/s 765 mmHg 82%
    03:00 +14°C° 0 mm 0 m/s 765 mmHg 82%
    04:00 +14°C° 0 mm 0 m/s 765 mmHg 83%
    05:00 +14°C° 0 mm 0 m/s 765 mmHg 83%
    06:00 +14°C° 0 mm 0 m/s 765 mmHg 82%
    07:00 +14°C° 0 mm 0 m/s 765 mmHg 81%
    08:00 +14°C° 0 mm 0 m/s 765 mmHg 80%
    09:00 +16°C° 0 mm 0 m/s 766 mmHg 73%
    10:00 +17°C° 0 mm 0 m/s 766 mmHg 66%
    11:00 +19°C° 0 mm 0 m/s 766 mmHg 60%
    12:00 +21°C° 0 mm 1 m/s 765 mmHg 58%
    13:00 +22°C° 0 mm 1 m/s 765 mmHg 56%
    14:00 +23°C° 0 mm 1 m/s 765 mmHg 54%
    15:00 +20°C° 0 mm 2 m/s 765 mmHg 60%
    16:00 +19°C° 0 mm 2 m/s 765 mmHg 66%
    17:00 +18°C° 0 mm 2 m/s 764 mmHg 71%
    18:00 +17°C° 0 mm 2 m/s 764 mmHg 72%
    19:00 +17°C° 0 mm 2 m/s 764 mmHg 74%
    20:00 +16°C° 0 mm 2 m/s 764 mmHg 75%
    21:00 +16°C° 0 mm 2 m/s 764 mmHg 76%
    22:00 +15°C° 0 mm 2 m/s 764 mmHg 77%
    23:00 +15°C° 0 mm 2 m/s 764 mmHg 78%

    Depois de amanhã, 20 Novembro, Quarta-feira

    Tempo Temperatura Precipitação Vento Pressão Humidade
    00:00 +15°C° 0 mm 2 m/s 764 mmHg 81%
    01:00 +14°C° 0 mm 2 m/s 764 mmHg 84%
    02:00 +14°C° 0 mm 2 m/s 764 mmHg 87%
    03:00 +14°C° 0 mm 2 m/s 764 mmHg 88%
    04:00 +14°C° 0 mm 2 m/s 763 mmHg 90%
    05:00 +14°C° 0 mm 2 m/s 763 mmHg 92%
    06:00 +13°C° 0 mm 3 m/s 763 mmHg 93%
    07:00 +13°C° 0 mm 3 m/s 763 mmHg 94%
    08:00 +13°C° 0 mm 3 m/s 763 mmHg 95%
    09:00 +16°C° 0 mm 3 m/s 763 mmHg 86%
    10:00 +17°C° 0 mm 4 m/s 763 mmHg 77%
    11:00 +17°C° 0 mm 5 m/s 763 mmHg 69%
    12:00 +19°C° 0 mm 5 m/s 763 mmHg 66%
    13:00 +19°C° 0 mm 5 m/s 762 mmHg 63%
    14:00 +20°C° 0 mm 5 m/s 762 mmHg 61%
    15:00 +18°C° 0 mm 4 m/s 762 mmHg 68%
    16:00 +17°C° 0 mm 4 m/s 762 mmHg 76%
    17:00 +15°C° 0 mm 4 m/s 761 mmHg 84%
    18:00 +15°C° 0 mm 4 m/s 762 mmHg 85%
    19:00 +15°C° 0 mm 4 m/s 762 mmHg 87%
    20:00 +14°C° 0 mm 3 m/s 762 mmHg 88%
    21:00 +14°C° 0 mm 3 m/s 762 mmHg 89%
    22:00 +14°C° 0 mm 3 m/s 762 mmHg 89%
    23:00 +14°C° 0 mm 3 m/s 762 mmHg 90%

    21 Novembro, Quinta-feira

    Tempo Temperatura Precipitação Vento Pressão Humidade
    00:00 +15°C° 0 mm 2 m/s 762 mmHg 89%
    01:00 +15°C° 0 mm 2 m/s 762 mmHg 89%
    02:00 +15°C° 0 mm 2 m/s 762 mmHg 89%
    03:00 +15°C° 0.2 mm 2 m/s 762 mmHg 89%
    04:00 +14°C° 0.2 mm 3 m/s 761 mmHg 90%
    05:00 +14°C° 0.2 mm 3 m/s 761 mmHg 90%
    06:00 +14°C° 0.3 mm 3 m/s 761 mmHg 90%
    07:00 +14°C° 0.3 mm 3 m/s 762 mmHg 90%
    08:00 +14°C° 0.3 mm 3 m/s 762 mmHg 91%
    09:00 +14°C° 0.2 mm 3 m/s 762 mmHg 88%
    10:00 +15°C° 0.2 mm 4 m/s 762 mmHg 86%
    11:00 +15°C° 0.2 mm 5 m/s 762 mmHg 83%
    12:00 +15°C° 0 mm 5 m/s 762 mmHg 81%
    13:00 +16°C° 0 mm 5 m/s 762 mmHg 78%
    14:00 +16°C° 0 mm 5 m/s 761 mmHg 76%
    15:00 +15°C° 0.2 mm 5 m/s 761 mmHg 80%
    16:00 +15°C° 0.2 mm 5 m/s 761 mmHg 83%
    17:00 +14°C° 0.2 mm 5 m/s 761 mmHg 87%
    18:00 +14°C° 0.5 mm 5 m/s 762 mmHg 88%
    19:00 +14°C° 0.5 mm 6 m/s 762 mmHg 88%
    20:00 +14°C° 0.5 mm 6 m/s 762 mmHg 89%
    21:00 +14°C° 0.5 mm 6 m/s 763 mmHg 89%
    22:00 +14°C° 0.5 mm 7 m/s 763 mmHg 88%
    23:00 +12°C° 0.5 mm 7 m/s 763 mmHg 88%

    22 Novembro, Sexta-feira

    Tempo Temperatura Precipitação Vento Pressão Humidade
    00:00 +12°C° 0.2 mm 7 m/s 763 mmHg 87%
    01:00 +12°C° 0.2 mm 7 m/s 763 mmHg 86%
    02:00 +12°C° 0.2 mm 7 m/s 763 mmHg 86%
    03:00 +12°C° 0 mm 7 m/s 763 mmHg 85%
    04:00 +11°C° 0 mm 7 m/s 763 mmHg 85%
    05:00 +11°C° 0 mm 7 m/s 763 mmHg 84%
    06:00 +11°C° 0 mm 7 m/s 763 mmHg 84%
    07:00 +11°C° 0 mm 7 m/s 763 mmHg 84%
    08:00 +11°C° 0 mm 8 m/s 763 mmHg 83%
    09:00 +11°C° 0 mm 8 m/s 763 mmHg 83%
    10:00 +11°C° 0 mm 8 m/s 764 mmHg 82%
    11:00 +11°C° 0 mm 7 m/s 764 mmHg 81%
    12:00 +11°C° 0 mm 7 m/s 763 mmHg 80%
    13:00 +11°C° 0 mm 7 m/s 763 mmHg 80%
    14:00 +11°C° 0 mm 7 m/s 763 mmHg 79%
    15:00 +10°C° 0 mm 6 m/s 763 mmHg 80%
    16:00 +10°C° 0 mm 6 m/s 763 mmHg 81%
    17:00 +10°C° 0 mm 6 m/s 763 mmHg 81%
    18:00 +9°C° 0 mm 6 m/s 763 mmHg 82%
    19:00 +9°C° 0 mm 6 m/s 763 mmHg 82%
    20:00 +9°C° 0 mm 6 m/s 763 mmHg 82%
    21:00 +9°C° 0 mm 5 m/s 763 mmHg 82%
    22:00 +9°C° 0 mm 5 m/s 763 mmHg 82%
    23:00 +10°C° 0 mm 4 m/s 763 mmHg 82%

    23 Novembro, Sábado

    Tempo Temperatura Precipitação Vento Pressão Humidade
    00:00 +11°C° 0 mm 4 m/s 763 mmHg 83%
    01:00 +11°C° 0 mm 4 m/s 763 mmHg 83%
    02:00 +11°C° 0 mm 4 m/s 763 mmHg 84%
    03:00 +11°C° 0.1 mm 3 m/s 763 mmHg 85%
    04:00 +11°C° 0.1 mm 3 m/s 763 mmHg 86%
    05:00 +10°C° 0.1 mm 3 m/s 763 mmHg 87%
    06:00 +10°C° 0.4 mm 3 m/s 763 mmHg 88%
    07:00 +12°C° 0.4 mm 2 m/s 763 mmHg 89%
    08:00 +12°C° 0.4 mm 2 m/s 763 mmHg 90%
    09:00 +12°C° 0.2 mm 2 m/s 763 mmHg 90%
    10:00 +12°C° 0.2 mm 2 m/s 763 mmHg 89%
    11:00 +13°C° 0.2 mm 2 m/s 763 mmHg 88%
    12:00 +13°C° 0 mm 2 m/s 763 mmHg 87%
    13:00 +13°C° 0 mm 2 m/s 762 mmHg 86%
    14:00 +14°C° 0 mm 2 m/s 762 mmHg 84%
    15:00 +14°C° 0.2 mm 2 m/s 762 mmHg 86%
    16:00 +13°C° 0.2 mm 2 m/s 762 mmHg 88%
    17:00 +13°C° 0.2 mm 2 m/s 762 mmHg 89%
    18:00 +13°C° 0.1 mm 2 m/s 762 mmHg 90%
    19:00 +13°C° 0.1 mm 2 m/s 762 mmHg 91%
    20:00 +13°C° 0.1 mm 2 m/s 762 mmHg 92%
    21:00 +13°C° 0 mm 1 m/s 762 mmHg 92%
    22:00 +13°C° 0 mm 1 m/s 761 mmHg 92%
    23:00 +13°C° 0 mm 1 m/s 761 mmHg 92%
    Mostrar mais